Weather History for Branson, MO

Change the Weather History Date:

Monday, August 26, 2013

  Actual Average (KHRO) Record (KHRO)
Temperature  
Mean Temperature 79 °F 76 °F  
Max Temperature 89 °F 88 °F 105 °F (1943)
Min Temperature 69 °F 65 °F 49 °F (1934)
Degree Days  
Heating Degree Days 0 0  
Month to date heating degree days 0  
Since 1 June heating degree days 6  
Since 1 July heating degree days 0  
Cooling Degree Days 14 11  
Month to date cooling degree days 343  
Year to date cooling degree days 1161  
Since 1 June cooling degree days 1022  
Growing Degree Days 29 (Base 50)    
Moisture  
Dew Point 69 °F    
Average Humidity 78    
Maximum Humidity 94    
Minimum Humidity 49    
Precipitation  
Precipitation 0.00 in 0.12 in 2.51 in (1975)
Month to date precipitation 3.01  
Year to date precipitation 28.39  
Snow  
Snow 0.00 in 0.00 in - ()
Month to date snowfall 0.0  
Since 1 June snowfall 0.0  
Since 1 July snowfall 0.0  
Snow Depth -    
Sea Level Pressure  
Sea Level Pressure 30.22 in    
Wind  
Wind Speed 3 mph (SSE)    
Max Wind Speed 9 mph    
Max Gust Speed -    
Visibility 9 miles    
Events      
T = Trace of Precipitation, MM = Missing Value Source: NWS Daily Summary

Daily Weather History Graph

Daily Weather History Graph

Search for Another Location

Airport:

Trip Planner

Search our weather history database for the weather conditions in past years. The results will help you decide how hot, cold, wet, or windy it might be!

Date:

Astronomy

Aug. 26, 2013 Rise Set
Actual Time 6:39 AM CDT 7:48 PM CDT
Civil Twilight 6:12 AM CDT 8:15 PM CDT
Nautical Twilight 5:40 AM CDT 8:47 PM CDT
Astronomical Twilight 5:07 AM CDT 9:20 PM CDT
Moon 11:11 PM CDT (8/26) 12:30 PM CDT (8/26)
Length of Visible Light 14h 02m
Length of Day
13h 09m
Waning Gibbous, 66% of the Moon is Illuminated
Aug 26
Waning Gibbous
Aug 28
Last Quarter
Sep 5
New
Sep 12
First Quarter
Sep 19
Full

Hourly Weather History & Observations

Time (CDT) Temp. Heat Index Dew Point Humidity Pressure Visibility Wind Dir Wind Speed Gust Speed Precip Events Conditions
12:15 AM 75.2 °F - 69.8 °F 83% 30.24 in 10.0 mi SSE 9.2 mph - N/A   Clear
12:35 AM 75.2 °F - 69.8 °F 83% 30.24 in 10.0 mi SSE 8.1 mph - N/A   Clear
12:55 AM 75.2 °F - 69.8 °F 83% 30.24 in 10.0 mi SSE 6.9 mph - N/A   Clear
1:15 AM 75.2 °F - 69.8 °F 83% 30.24 in 10.0 mi SSE 4.6 mph - N/A   Clear
1:35 AM 75.2 °F - 69.8 °F 83% 30.24 in 10.0 mi SSE 4.6 mph - N/A   Clear
1:55 AM 75.2 °F - 69.8 °F 83% 30.24 in 10.0 mi Calm Calm - N/A   Clear
2:15 AM 73.4 °F - 69.8 °F 88% 30.24 in 10.0 mi Calm Calm - N/A   Clear
2:35 AM 73.4 °F - 69.8 °F 88% 30.24 in 10.0 mi Calm Calm - N/A   Clear
2:55 AM 71.6 °F - 69.8 °F 94% 30.24 in 10.0 mi Calm Calm - N/A   Clear
3:15 AM 71.6 °F - 69.8 °F 94% 30.24 in 10.0 mi Calm Calm - N/A   Clear
3:35 AM 71.6 °F - 69.8 °F 94% 30.25 in 10.0 mi Calm Calm - N/A   Clear
3:55 AM 71.6 °F - 68.0 °F 88% 30.25 in 9.0 mi Calm Calm - N/A   Clear
4:15 AM 69.8 °F - 68.0 °F 94% 30.25 in 7.0 mi Calm Calm - N/A   Clear
4:35 AM 71.6 °F - 69.8 °F 94% 30.24 in 10.0 mi Calm Calm - N/A   Clear
4:55 AM 71.6 °F - 69.8 °F 94% 30.24 in 8.0 mi Calm Calm - N/A   Clear
5:15 AM 71.6 °F - 69.8 °F 94% 30.24 in 7.0 mi Calm Calm - N/A   Clear
5:35 AM 69.8 °F - 68.0 °F 94% 30.24 in 5.0 mi Calm Calm - N/A   Clear
5:55 AM 69.8 °F - 68.0 °F 94% 30.24 in 5.0 mi Calm Calm - N/A   Clear
6:15 AM 69.8 °F - 68.0 °F 94% 30.24 in 4.0 mi Calm Calm - N/A   Clear
6:35 AM 71.6 °F - 69.8 °F 94% 30.25 in 5.0 mi Calm Calm - N/A   Clear
6:53 AM 71.6 °F - 69.8 °F 94% 30.25 in 5.0 mi Calm Calm - N/A   Partly Cloudy
7:46 AM 73.4 °F - 69.8 °F 88% 30.25 in 9.0 mi Calm Calm - N/A   Clear
8:50 AM 77.0 °F - 69.8 °F 78% 30.26 in 10.0 mi Calm Calm - N/A   Clear
9:46 AM 80.6 °F 83.2 °F 68.0 °F 65% 30.27 in 10.0 mi Calm Calm - N/A   Clear
10:45 AM 82.4 °F 86.3 °F 69.8 °F 66% 30.27 in 10.0 mi Calm Calm - N/A   Clear
11:50 AM 84.2 °F 88.4 °F 69.8 °F 62% 30.27 in 10.0 mi SSW 5.8 mph - N/A   Scattered Clouds
12:50 PM 86.0 °F 89.4 °F 68.0 °F 55% 30.25 in 10.0 mi Calm Calm - N/A   Scattered Clouds
1:45 PM 86.0 °F 90.4 °F 69.8 °F 58% 30.23 in 10.0 mi South 6.9 mph - N/A   Mostly Cloudy
2:53 PM 87.8 °F 92.6 °F 69.8 °F 55% 30.21 in 10.0 mi South 5.8 mph - N/A   Mostly Cloudy
3:47 PM 89.6 °F 93.4 °F 68.0 °F 49% 30.19 in 10.0 mi SE 5.8 mph - N/A   Scattered Clouds
4:46 PM 89.6 °F 93.4 °F 68.0 °F 49% 30.17 in 10.0 mi SSE 8.1 mph - N/A   Scattered Clouds
5:45 PM 87.8 °F 90.4 °F 66.2 °F 49% 30.16 in 10.0 mi SSE 4.6 mph - N/A   Partly Cloudy
6:45 PM 84.2 °F 88.4 °F 69.8 °F 62% 30.15 in 10.0 mi SSE 3.5 mph - N/A   Partly Cloudy
7:45 PM 80.6 °F 83.2 °F 68.0 °F 65% 30.16 in 10.0 mi SSE 3.5 mph - N/A   Partly Cloudy
8:45 PM 78.8 °F - 68.0 °F 69% 30.17 in 10.0 mi South 3.5 mph - N/A   Partly Cloudy
9:15 PM 77.0 °F - 68.0 °F 74% 30.17 in 10.0 mi Calm Calm - N/A   Clear
9:35 PM 77.0 °F - 68.0 °F 74% 30.17 in 10.0 mi Calm Calm - N/A   Scattered Clouds
9:55 PM 77.0 °F - 68.0 °F 74% 30.17 in 10.0 mi Calm Calm - N/A   Partly Cloudy
10:15 PM 75.2 °F - 68.0 °F 78% 30.17 in 10.0 mi Calm Calm - N/A   Clear
10:35 PM 75.2 °F - 68.0 °F 78% 30.17 in 10.0 mi Calm Calm - N/A   Clear
10:55 PM 77.0 °F - 66.2 °F 69% 30.17 in 10.0 mi Calm Calm - N/A   Clear
11:15 PM 77.0 °F - 66.2 °F 69% 30.17 in 10.0 mi Calm Calm - N/A   Clear
11:35 PM 75.2 °F - 66.2 °F 73% 30.17 in 10.0 mi Calm Calm - N/A   Clear
11:55 PM 75.2 °F - 66.2 °F 73% 30.17 in 10.0 mi Calm Calm - N/A   Clear